User: anonymous   Login
Location: Unspecified
(0.0000°N, 0.0000°E)
Time: 19:15:07
(UTC+00:00)
Language:

STARLINK-6242 - Orbit

View from above orbital plane
View from above orbital plane
View from above satellite
View from above satellite

Ground track
Ground track

The orbit is defined by the following mean orbital elements,

1 56424U          26145.23087299 +.00000000 +00000-0 +40442-4 0 00000
2 56424  43.0037 107.4628 0001419 269.7175  90.3513 15.26742684    06
Epoch (UTC): 25 May 2026 05:32:27
Eccentricity: 0.0001419
inclination: 43.0037°
perigee height: 485 km
apogee height: 487 km
right ascension of ascending node: 107.4628°
argument of perigee: 269.7175°
revolutions per day: 15.26742684
mean anomaly at epoch: 90.3513°

The dashed part of the orbit path shows where the satellite is in the earth's shadow,  

DLR